Flag for United Kingdom Weather past 2 weeks in St. Peter Port, Guernsey, United Kingdom

Now
50 °F

Passing clouds.


Feels Like: 47 °F
Forecast: 46 / 52 °F
Wind: 8 mph from Northeast

Location: Guernsey Airport


UV Index: 3 (Moderate)

Visibility: N/A


Pressure: 30.09 "Hg

Humidity: 67%

Dew point: 39 °F

Location of St. Peter PortLocation

Historic Weather in St. Peter Port

°F

St. Peter Port temperature yesterday

Maximum temperature yesterday: 57 °F (at 1:50 PM)
Minimum temperature yesterday: 50 °F (at 3:50 AM)
Average temperature yesterday: 53 °F

Past Weeks' High & Low Weather Summary

 TemperatureHumidityPressure
High59 °F (Apr 16, 3:50 PM)100% (Apr 3, 6:20 PM)30.39 "Hg (Apr 3, 6:20 PM)
Low43 °F (Apr 10, 5:20 AM)51% (Apr 16, 12:50 PM)29.62 "Hg (Apr 3, 6:20 PM)
Average51 °F85%30.13 "Hg
* Reported Apr 3 6:20 PM — Apr 18 6:20 PM, St. Peter Port, Weather by CustomWeather, © 2014

Note: Actual official high and low records may vary slightly from our data, if they occured in-between our weather recording intervals... More about our weather records

Advertising

Historic Weather Conditions — Data for Previous 24 hours

 ConditionsComfort  
Time TempWeatherWind HumidityBarometerVisibility
6:20 PM
Apr 18
52 °FPassing clouds.9 mph67%30.09 "HgN/A
5:50 PM52 °FSunny.12 mph62%30.09 "Hg10 mi
5:20 PM52 °FSunny.13 mph67%30.09 "Hg10 mi
4:50 PM52 °FPassing clouds.13 mph72%30.09 "HgN/A
4:20 PM52 °FPassing clouds.13 mph72%30.09 "HgN/A
3:50 PM52 °FPassing clouds.13 mph77%30.12 "HgN/A
3:20 PM54 °FPassing clouds.12 mph72%30.12 "HgN/A
2:20 PM54 °FPassing clouds.12 mph72%30.12 "HgN/A
1:50 PM52 °FPassing clouds.10 mph77%30.12 "HgN/A
1:20 PM52 °FPassing clouds.12 mph72%30.12 "HgN/A
12:50 PM52 °FPassing clouds.13 mph77%30.12 "HgN/A
12:20 PM52 °FPassing clouds.10 mph77%30.12 "HgN/A
11:50 AM52 °FPassing clouds.12 mph77%30.12 "HgN/A
11:20 AM50 °FScattered clouds.12 mph82%30.12 "HgN/A
10:50 AM52 °FScattered clouds.12 mph77%30.12 "HgN/A
10:20 AM50 °FPassing clouds.12 mph82%30.12 "HgN/A
9:50 AM50 °FPassing clouds.12 mph76%30.12 "HgN/A
9:20 AM50 °FPassing clouds.12 mph76%30.12 "HgN/A
8:50 AM50 °FPassing clouds.12 mph82%30.12 "HgN/A
8:20 AM50 °FScattered clouds.12 mph88%30.12 "HgN/A
7:50 AM50 °FPassing clouds.10 mph88%30.12 "HgN/A
7:20 AM48 °FPassing clouds.9 mph94%30.09 "HgN/A
6:50 AM48 °FClear.10 mph94%30.09 "Hg10 mi
6:20 AM48 °FClear.9 mph94%30.09 "Hg10 mi
5:50 AM48 °FClear.9 mph94%30.09 "Hg10 mi
5:20 AM48 °FClear.9 mph94%30.09 "Hg10 mi
4:50 AM48 °FClear.9 mph94%30.09 "Hg10 mi
4:20 AM48 °FClear.9 mph94%30.09 "Hg10 mi
3:50 AM48 °FClear.12 mph94%30.09 "Hg10 mi
8:50 PM
Apr 17
52 °FPassing clouds.13 mph88%30.12 "HgN/A
8:20 PM50 °FPassing clouds.14 mph94%30.12 "HgN/A
7:50 PM50 °FSunny.14 mph94%30.12 "Hg10 mi
7:20 PM50 °FClear.14 mph94%30.12 "Hg6 mi
Weather by CustomWeather, © 2014

See weather overview